Location: Spruce Knob
(38.6995°N, 79.5330°W)
Time: 19:10:58
(UTC-04:00)

Transit 2A - Pass Details

Date: 14 August 2022
Orbit: 601 x 956 km, 66.7° (Epoch: 27 September)

Event Time Altitude Azimuth Distance (km) Brightness Sun altitude
Rises 21:47:29 0° 322° (NW) 2,867 10.4 -17.1°
Reaches altitude 10° 21:49:49 10° 313° (NW) 1,979 9.4 -17.5°
Maximum altitude 21:53:50 35° 248° (WSW) 1,039 7.0 -18.1°
Enters shadow 21:57:13 15° 188° (S) 1,787 7.6 -18.7°
